Regional Weather Roundup
Issued by NWS Sterling, VA

Home | Current Version | Previous Version | Graphics & Text | Print | Product List | Glossary On
Versions: 1 2 3 4 5 6 7 8 9 10 11 12 13 14 15 16 17 18 19 20 21 22 23 24 25 26 27
000
ASUS41 KLWX 252111
RWRLWX

REGIONAL WEATHER ROUNDUP
NATIONAL WEATHER SERVICE BALTIMORE MD/WASHINGTON DC
400 PM EST SAT FEB 25 2017

Note: "FAIR" indicates few or no clouds below 12,000 feet
with no significant weather and/or obstructions to visibility.
 TC=TEMPERATURE CELSIUS

 * =Non NWS site. Station does not report precipitation (e.g. rain,
    snow, etc.), thunder, or fog.

DCZ001-MDZ009-015-VAZ040>042-051-053>054-252200-
WASHINGTON METRO

CITY           SKY/WX    TMP DP  RH WIND       PRES   REMARKS
WASHINGTON NAT CLOUDY    56  50  80 NW15G28   29.52R THUNDER
DULLES         CLOUDY    55  46  71 N10       29.54R
ANDREWS AFB    CLOUDY    55  50  82 NW18G28   29.51R
FT BELVOIR     CLOUDY    57  48  72 NW12G21   29.52R
QUANTICO       CLOUDY    63  56  78 NW10      29.51R
COLLEGE PARK*  CLOUDY    54  46  76 NW14G24   29.53R
LEESBURG*      CLOUDY    54  48  82 MISG      29.55R
MANASSAS*        N/A     59  49  69 NW14      29.53R
GAITHERSBURG*  CLOUDY    52  43  71 NW18G28   29.58R

$$

MDZ006>007-011-014-252200-
BALTIMORE METRO

CITY           SKY/WX    TMP DP  RH WIND       PRES   REMARKS
BWI AIRPORT    LGT RAIN  54  50  86 NW18G31   29.50R
MD SCIENCE CTR   N/A     56  50  80 MISG      29.49R
MARTIN STATE   TSTM      64  61  88 W22G29    29.50R VSB 1
ANNAPOLIS      LGT RAIN  56  51  84 W16G24    29.52R
FORT MEADE*    CLOUDY    52  48  87 W15G25    29.54R

$$

MDZ012-015-019>023-252200-
MARYLAND EASTERN SHORE

CITY           SKY/WX    TMP DP  RH WIND       PRES   REMARKS
OCEAN CITY     CLOUDY    55  51  86 S7        29.54F
SALISBURY      SUNNY     71  59  65 S15G23    29.49F
BAY BRIDGE AP* RAIN      64  59  82 SW13G22   29.47R
CAMBRIDGE*     MOSUNNY   70  57  64 S20G28    29.45F
EASTON*        PTSUNNY   72  55  56 S21G28    29.47F THUNDER

$$

MDZ017>025-252200-
SOUTHERN MARYLAND

CITY           SKY/WX    TMP DP  RH WIND       PRES   REMARKS
PATUXENT RIVER CLOUDY    68  57  68 S12G23    29.46S THUNDER
ST INIGOES     CLOUDY    67  56  67 SE13G20   29.45F THUNDER
LEONARDTOWN*   CLOUDY    68  54  60 S9G17     29.48R

$$

MDZ003>005-252200-
NORTH CENTRAL MARYLAND

CITY           SKY/WX    TMP DP  RH WIND       PRES   REMARKS
FREDERICK*     PTSUNNY   52  52 100 W18G29    29.59R
HAGERSTOWN APT LGT RAIN  51  46  83 W13       29.58R
WESTMINSTER*   CLOUDY    54  48  82 W17G25    29.52R

$$

MDZ501>502-252200-
WESTERN MARYLAND

CITY           SKY/WX    TMP DP  RH WIND       PRES   REMARKS
OAKLAND*       PTSUNNY   41  28  60 W15G28    29.61R
CUMBERLAND*    PTSUNNY   54  32  43 W15G33    29.64F

$$

VAZ025>031-252200-
SHENANDOAH VALLEY

CITY           SKY/WX    TMP DP  RH WIND       PRES   REMARKS
WINCHESTER*    CLOUDY    50  39  66 W17G37    29.59R
FRONT ROYAL*   CLOUDY    55  37  50 W20G30    29.57R
LURAY*         PTSUNNY   55  41  58 W16G28    29.60R
NEW MARKET*    CLOUDY    57  33  41 W12G23    29.61R
STAUNTON*      CLOUDY    56  37  50 W12G24    29.64R
WAYNESBORO*    MOSUNNY   57  37  46 W12G26    29.61S

$$

WVZ021-048>050-054>055-252200-
EASTERN WEST VIRGINIA PANHANDLE

CITY           SKY/WX    TMP DP  RH WIND       PRES   REMARKS
MARTINSBURG    CLOUDY    52  40  63 NW20G30   29.58R
PETERSBURG*    SUNNY     53  34  48 SW22G39   29.64R

$$

VAZ036>039-050-252200-
CENTRAL FOOTHILLS

CITY           SKY/WX    TMP DP  RH WIND       PRES   REMARKS
CHARLOTTESVILL CLOUDY    62  38  40 W13G25    29.55R
CULPEPER*      CLOUDY    66  49  54 W10       29.52R
ORANGE*        PTSUNNY   61  43  51 SW18G24   29.54R
GORDONSVILLE*  PTSUNNY   63  42  46 W12G29    29.54R
WARRENTON*     CLOUDY    63  46  52 W13G20    29.52R

$$

VAZ055>057-252200-
NORTH AND CENTRAL PIEDMONT

CITY           SKY/WX    TMP DP  RH WIND       PRES   REMARKS
FREDERICKSBRG* CLOUDY    65  55  70 W13G18    29.50S
STAFFORD*      CLOUDY    63  54  73 W9        29.55R

$$

NCZ024-NYZ072-PAZ021-071-VAZ022-071-252200-
OTHER REGIONAL OBSERVATIONS

CITY           SKY/WX    TMP DP  RH WIND       PRES   REMARKS
NEW YORK CITY  MOSUNNY   60  55  83 S12G24    29.50F
PHILADELPHIA   PTSUNNY   69  54  58 S18       29.43F
PITTSBURGH     PTSUNNY   43  23  45 W20G39    29.67R
ROANOKE        MOSUNNY   60  36  40 W22G31    29.67R
RICHMOND       TSTM      65  60  84 SW21G26   29.51R
RALEIGH        PTSUNNY   77  51  40 SW25G36   29.56F

$$

ANZ530>537-252200-
MARINE OBSERVATIONS

STATION/POSITION TIME  TEMP    WIND        PRES
                       AIR SEA DIR/SP/G
                 (UTC) (F)     (DEG/KT/KT) (MB)
THOMAS PT LIGHT  2100   57 45  240/ 17/ 18   N/A
BALT KEY BRIDGE  2048   52     290/ 24/ 32  998.8R
COVE POINT       2048   52     190/ 17/ 21  998.2F
LEWISETTA        2048   69 53  190/ 11/ 13  997.2F
SOLOMONS ISLAND  2048   66 47  170/ 14/ 17   N/A
PINEY POINT      2048          170/ 16/ 17   N/A

$$





USA.gov is the U.S. government's official web portal to all federal, state and local government web resources and services.